Lapse_Rate
1.1 3.6 6.5 6.5 6.7 5.9 5.8 5.6 5.5 5.4 5.2 5.5 5.8 5.8 5.8 5.7 5.8 5.7 5.7 5.8 6.0 6.2 6.3 6.4 6.5 6.2 6.6 6.3 6.0 5.6 5.5 5.6 5.5 5.5 5.7 5.6 5.8 5.9 5.5 5.2 5.4 5.8 6.2
0.7 2.7 6.1 6.3 5.9 5.6 5.6 5.4 5.4 5.4 5.5 5.7 6.0 6.0 5.9 5.9 5.9 5.9 5.9 6.0 6.2 6.4 6.7 7.2 6.2 6.7 6.6 6.2 5.8 5.6 5.5 5.3 5.3 5.1 5.3 5.6 5.8 5.8 5.8 5.5 5.7 6.1 6.0
2.2 3.7 6.2 6.1 5.5 5.6 5.5 5.2 5.3 5.4 5.4 5.5 5.8 6.0 6.0 6.0 5.9 6.0 6.0 6.0 6.2 6.5 6.9 6.8 5.9 6.0 6.0 5.6 5.5 5.6 5.5 5.3 5.0 5.1 5.4 5.3 5.8 5.9 5.9 5.7 6.0 6.2 6.1
2.2 3.8 5.6 5.7 5.5 5.6 5.5 5.2 5.3 5.4 5.4 5.6 5.7 5.9 6.0 6.0 6.1 5.9 5.9 5.9 6.2 6.3 5.9 5.5 5.4 5.5 5.6 5.5 5.5 5.7 5.5 5.2 5.3 5.3 5.1 5.6 6.1 6.0 6.3 6.5 6.5 6.6 6.2
2.9 4.2 4.9 5.1 5.4 5.2 5.2 5.3 5.3 5.4 5.5 5.6 5.7 5.9 5.9 6.1 6.2 5.9 5.7 5.4 5.6 5.5 5.4 5.7 6.0 5.8 5.5 5.6 5.5 5.4 5.1 4.6 4.9 4.8 5.2 5.6 6.0 6.3 6.2 6.1 6.0 5.8 5.6
4.6 4.3 5.1 5.2 5.3 5.2 5.1 5.2 5.4 5.3 5.4 5.6 5.7 5.9 6.0 5.9 5.4 4.9 4.6 4.6 4.9 5.3 5.6 5.7 5.9 5.6 5.4 5.4 5.4 5.2 4.7 4.4 4.6 4.9 5.2 6.0 5.9 6.6 6.3 6.0 6.1 6.1 6.0
2.8 4.3 5.0 5.3 5.3 5.3 5.1 5.2 5.2 5.2 5.3 5.4 5.6 5.8 6.0 5.7 5.5 4.9 5.0 4.9 5.0 5.3 5.4 4.6 5.2 5.8 5.7 5.3 4.9 4.3 4.1 4.1 4.3 5.1 5.5 5.8 6.1 6.4 6.4 6.3 6.5 6.3 6.6
4.3 5.5 5.2 5.4 5.2 5.3 5.1 5.1 5.2 5.1 5.2 5.4 5.5 5.7 5.9 5.7 5.6 5.7 5.5 5.4 5.2 5.6 5.3 5.5 4.9 5.0 5.3 5.1 4.4 3.5 3.0 3.2 3.6 4.5 5.3 6.0 6.1 6.5 6.4 6.0 6.1 6.3 6.1
5.5 5.3 5.1 5.2 5.2 5.1 5.1 5.0 5.1 5.0 5.2 5.5 5.5 5.4 5.5 5.2 5.3 5.7 5.6 5.4 5.1 5.4 5.2 4.6 5.2 4.4 4.3 4.1 4.1 2.7 2.1 2.6 2.8 4.0 5.3 6.0 6.2 6.4 6.4 6.3 6.3 6.2 6.2
5.5 5.1 5.3 4.8 5.1 4.9 4.9 4.9 4.7 4.6 5.2 5.4 4.9 4.7 4.8 5.0 5.0 5.3 5.1 4.9 4.9 4.7 4.4 3.8 3.5 3.6 3.5 3.2 2.4 2.3 1.7 1.5 2.1 3.4 5.2 6.1 6.3 6.3 6.2 6.2 6.2 6.1 6.1
4.7 5.1 5.2 5.4 5.2 4.8 4.8 4.4 4.3 4.1 4.0 3.2 3.2 3.7 4.2 4.5 4.2 3.9 3.9 3.7 3.8 4.0 3.8 3.2 2.4 1.7 1.3 1.2 1.4 1.1 0.6 0.8 1.7 2.5 4.3 6.2 6.1 6.4 6.4 6.1 6.0 6.2 6.0
4.9 4.8 5.2 5.4 5.4 5.2 4.6 4.3 3.2 3.4 3.7 3.6 3.9 3.3 3.3 3.7 3.2 2.6 2.6 2.7 2.7 2.5 2.4 1.9 1.2 0.3 -0.3 -0.4 -0.1 0.1 -0.5 -0.4 0.3 1.9 3.5 6.4 6.5 6.4 6.1 5.8 5.9 6.0 5.7
5.3 4.9 4.8 5.0 5.3 4.9 4.5 3.8 3.3 3.6 2.9 2.3 2.1 2.2 1.8 1.8 1.5 0.6 0.0 -0.8 -1.0 -1.1 -1.5 -1.0 -0.9 -1.1 -1.4 -0.9 -0.8 -1.3 -0.8 -0.7 -1.3 -0.1 1.9 4.2 6.4 6.4 6.1 5.9 5.9 6.0 5.7
5.2 5.0 4.7 4.7 4.8 4.4 4.0 3.8 2.9 2.6 2.4 1.5 1.3 1.7 1.6 1.2 0.9 0.4 -0.6 -1.0 -1.0 -0.8 -1.5 -1.2 -1.0 -1.0 -1.2 -1.2 -1.3 -1.5 -1.7 -1.5 -1.5 -1.5 -0.6 1.8 4.1 6.0 6.3 6.2 6.0 6.2 6.0
4.6 4.2 4.3 4.2 4.0 3.7 3.7 3.3 2.7 2.1 2.3 1.1 1.1 0.9 1.3 0.9 0.2 -0.2 -1.0 -0.9 -1.0 -0.9 -1.1 -1.3 -1.1 -0.8 -0.9 -1.0 -0.9 -1.0 -1.3 -1.6 -1.2 -1.3 -1.4 0.1 1.9 3.2 4.9 5.9 6.2 6.1 6.3
5.5 4.3 4.0 3.7 4.2 3.0 2.8 3.3 3.1 2.6 2.2 1.8 1.3 0.6 0.9 0.1 -0.3 -0.8 -1.2 -1.0 -1.3 -0.9 -1.2 -1.3 -1.2 -1.0 -1.1 -0.6 -0.6 -0.4 -0.7 -0.5 -0.8 -1.1 -0.8 -1.1 -0.5 1.1 2.0 4.3 6.0 6.2 6.7
4.2 4.7 4.1 3.0 2.6 2.9 2.8 2.4 2.5 2.2 2.2 2.3 0.6 1.0 0.5 0.1 -0.4 -1.3 -1.7 -1.5 -1.6 -1.4 -1.5 -1.2 -1.0 -0.9 -0.9 -0.3 -0.8 -0.7 -0.6 -0.6 -0.4 -0.3 -0.5 -0.6 -1.0 -0.8 0.6 2.2 4.9 6.2 6.1
4.4 4.4 3.2 2.5 2.4 2.2 2.0 1.2 0.9 1.2 1.8 0.3 0.5 0.2 0.1 -0.4 -1.0 -1.6 -2.2 -2.5 -2.1 -1.8 -1.3 -0.7 -0.3 -0.5 -1.1 -0.7 -1.2 -1.6 -1.7 -1.5 -0.8 -1.1 -0.7 -1.3 -1.4 -1.4 -1.1 0.5 1.6 4.0 5.3
4.4 3.4 2.4 2.1 1.1 0.7 0.2 -0.3 -0.4 -0.9 -0.7 -1.1 0.0 -0.3 -0.5 -0.9 -1.2 -2.3 -2.8 -3.1 -2.2 -2.0 -1.1 -0.5 -0.8 -0.5 -1.1 -1.0 -1.2 -1.6 -2.1 -2.8 -2.3 -1.7 -2.1 -1.8 -1.8 -1.9 -1.3 -1.3 -0.2 1.8 3.7
3.5 2.8 2.1 1.2 -0.1 -0.8 -1.7 -1.4 -1.8 -2.0 -1.9 -1.1 -1.1 -1.2 -1.2 -1.2 -1.3 -1.8 -2.7 -3.0 -2.2 -1.7 -0.9 -0.0 -1.2 -1.1 -1.0 -0.9 -0.2 -0.7 -1.7 -2.4 -2.5 -3.1 -3.6 -2.9 -2.6 -1.9 -1.9 -1.6 -1.4 -1.2 1.2
2.8 2.3 1.5 -0.0 -1.2 -1.2 -1.6 -1.2 -0.8 -1.6 -2.0 -1.8 -1.6 -1.1 -1.3 -1.5 -1.5 -1.9 -2.6 -3.0 -2.6 -2.5 -3.0 -1.2 -1.6 -2.0 -3.0 -1.6 -2.8 -0.4 -1.4 -1.7 -2.1 -3.1 -3.2 -3.7 -3.4 -2.7 -2.0 -1.7 -1.6 -0.8 -0.3
1.8 1.0 0.8 -0.0 -1.2 -0.5 -0.5 0.7 -1.9 -1.7 -2.4 -2.6 -1.7 -1.5 -1.2 -1.7 -2.0 -2.3 -2.4 -3.1 -3.6 -3.1 -2.8 -2.2 -2.2 -4.2 -3.3 -3.2 -1.9 -1.2 0.6 1.1 -1.8 -2.7 -3.1 -3.0 -3.8 -3.4 -3.2 -2.3 -1.1 -0.3 0.3
1.3 0.3 0.0 -0.3 0.0 0.1 -0.5 -2.1 -2.4 -2.2 -2.1 -2.0 -2.0 -2.3 -2.0 -1.4 -1.5 -2.2 -2.7 -3.3 -3.7 -2.6 -2.9 -3.7 -3.3 -2.6 -5.2 -4.3 -3.1 -1.2 -0.4 0.3 -2.4 -2.9 -3.4 -3.7 -3.9 -4.1 -3.5 -3.1 -2.3 -1.0 0.1
1.8 1.1 -0.2 -0.3 -0.6 -1.5 -1.8 -1.4 -1.3 -0.1 -0.8 -2.2 -1.4 -2.6 -2.9 -2.2 -2.5 -3.2 -3.3 -3.5 -3.8 -4.1 -3.8 -3.4 -2.2 -2.6 -2.7 -3.4 -2.7 -2.6 -3.4 -3.5 -1.6 -1.6 -2.9 -3.6 -3.0 -3.2 -3.9 -3.3 -2.6 -2.1 -0.6
0.6 0.2 -0.1 -0.6 -1.5 -1.7 -1.6 -0.4 -0.3 0.0 -2.0 -2.7 -2.2 -1.9 -2.6 -3.2 -2.6 -2.7 -2.9 -3.0 -3.7 -3.2 -3.4 -2.5 -2.6 -2.1 -2.2 -2.6 -2.7 -2.9 -2.5 -3.6 -3.6 -3.8 -3.4 -3.2 -3.4 -3.7 -3.0 -3.0 -2.6 -1.4 -1.0
-0.1 0.3 -0.3 -0.7 -1.0 -0.7 -0.7 -0.4 -0.7 -1.9 -2.7 -2.1 -3.1 -3.6 -3.4 -4.4 -3.1 -2.5 -3.1 -3.2 -3.4 -3.8 -3.8 -2.8 -2.1 -1.9 -2.1 -2.1 -2.3 -1.8 -1.2 -0.8 -2.0 -3.3 -3.9 -3.6 -3.0 -3.1 -2.9 -2.3 -2.2 -1.7 -0.6
Wind_Speed
7 12 21 21 21 21 20 20 18 19 20 20 21 22 22 21 20 20 20 21 21 22 22 22 22 23 23 23 23 23 24 23 22 20 22 21 22 23 22 22 21 22 25
14 17 24 22 22 21 21 20 17 19 20 21 21 22 22 20 21 21 21 22 22 24 24 25 24 24 25 24 24 25 24 23 23 22 22 23 22 22 22 21 23 24 25
18 18 23 22 23 21 21 21 18 19 19 20 21 21 22 21 21 23 23 23 24 26 26 26 26 24 22 23 24 24 23 22 20 20 21 17 19 21 21 21 23 23 24
18 18 23 24 23 22 22 22 20 19 19 19 20 21 22 23 24 25 26 26 25 26 27 24 23 21 21 23 22 22 21 20 21 20 17 16 17 19 19 21 23 23 23
15 20 22 26 25 24 23 21 21 21 20 19 20 21 23 24 25 26 27 26 25 25 24 23 22 23 23 23 23 23 21 20 20 18 18 17 16 18 19 19 20 20 21
17 19 23 27 26 25 24 23 22 23 21 22 21 22 23 26 27 27 27 27 27 27 26 27 26 26 27 26 24 23 21 20 20 19 18 16 17 19 19 19 20 21 21
12 18 24 28 27 26 25 23 23 24 23 23 23 25 25 25 24 24 24 26 28 28 23 29 28 26 27 26 25 23 22 22 19 17 16 16 17 19 18 17 19 19 22
15 17 23 26 27 26 25 24 25 25 25 25 25 25 25 24 24 24 24 26 27 25 25 22 27 25 24 24 24 25 24 22 19 17 16 16 17 18 18 20 18 20 21
16 14 19 21 23 25 25 25 26 25 25 25 26 26 25 25 25 25 24 25 27 26 25 27 25 27 25 25 24 25 25 26 20 16 14 16 18 18 18 18 19 19 20
12 14 14 19 20 21 22 25 26 26 25 25 27 26 25 24 24 24 25 26 25 26 27 27 27 26 27 26 27 23 26 24 20 17 14 14 17 17 16 17 17 17 18
11 14 14 16 19 21 21 22 25 28 28 28 29 30 25 21 21 24 27 27 26 25 27 27 26 25 26 28 26 24 24 19 18 17 13 15 15 16 15 15 16 16 16
14 15 14 13 17 22 19 22 21 23 21 23 23 22 19 20 20 24 27 26 25 25 26 25 23 21 21 19 20 20 19 18 18 19 22 14 14 14 14 15 15 15 15
15 12 15 14 19 18 17 19 17 16 17 17 18 18 21 21 19 18 17 17 17 16 16 19 21 20 20 19 18 18 17 17 15 18 29 26 13 12 12 12 12 14 15
13 15 16 15 13 16 18 14 15 15 16 15 15 20 19 15 16 14 12 14 15 15 18 18 18 19 22 21 19 20 18 17 16 15 25 33 29 11 10 10 10 13 15
13 13 15 16 14 14 12 15 15 14 16 16 16 17 17 15 14 15 13 13 14 16 17 16 17 17 18 18 20 18 18 18 17 16 18 30 33 33 25 6 8 12 16
15 13 15 16 15 15 10 13 12 16 18 18 17 16 20 18 16 15 13 13 15 16 15 16 15 16 15 17 18 18 17 16 17 20 17 19 27 33 33 28 8 12 16
15 16 17 15 15 13 13 12 14 15 18 16 16 21 21 19 18 18 14 12 14 18 20 19 18 18 16 16 17 18 17 19 19 19 17 18 22 23 30 34 30 8 16
15 16 16 15 16 13 11 10 10 14 15 15 16 18 20 20 19 17 14 13 16 16 16 15 13 9 8 9 7 14 16 17 18 18 18 20 21 19 19 30 36 33 16
15 13 15 15 18 15 12 12 11 12 12 15 18 16 18 20 21 17 14 16 18 16 14 13 7 9 8 9 9 12 15 15 16 17 20 20 20 23 21 21 27 34 33
16 14 13 12 15 15 10 10 9 8 9 12 13 13 17 16 20 19 15 16 17 15 10 11 10 9 8 9 10 9 11 14 16 17 16 17 19 21 23 25 24 22 29
14 15 15 15 14 14 11 10 6 6 4 4 9 14 15 16 18 18 15 15 14 9 8 12 9 12 6 6 4 6 7 10 13 13 17 15 18 19 22 25 21 24 22
15 14 14 14 14 12 11 8 5 6 5 4 9 11 13 16 16 17 17 12 13 9 10 7 7 3 3 1 3 3 2 2 4 9 12 12 16 17 20 22 23 23 23
16 15 15 15 14 10 11 10 8 7 9 3 3 3 6 12 14 17 17 15 14 13 8 4 5 6 4 1 3 4 3 3 1 3 6 8 12 13 17 19 21 22 23
13 13 15 14 13 10 11 11 19 9 9 3 4 4 7 9 11 12 15 15 14 14 7 4 7 3 4 4 2 4 4 4 3 1 3 3 9 8 13 16 20 20 21
13 13 13 14 13 12 10 12 11 12 6 5 6 9 7 8 11 13 14 16 13 13 15 12 5 5 3 4 3 3 3 4 4 3 2 1 3 6 11 13 16 17 18
10 12 13 14 11 12 14 9 11 12 14 9 8 7 4 4 6 9 13 16 15 13 14 12 10 6 4 4 3 3 3 3 3 3 3 1 2 2 5 10 13 14 15
Wind_Direction
193 176 166 161 151 143 140 135 131 124 123 124 122 119 116 112 111 111 108 112 107 104 100 98 100 101 99 94 90 88 89 89 89 90 89 87 88 90 89 83 80 81 84
155 170 161 161 151 149 144 134 133 126 126 126 124 120 118 114 113 112 113 113 109 108 105 99 97 98 98 94 93 93 92 91 92 86 86 87 85 88 88 87 87 84 82
157 166 156 160 153 150 143 133 134 125 125 125 124 121 119 115 113 113 111 109 110 108 104 99 98 97 96 97 93 95 93 89 84 83 87 84 89 88 92 93 93 89 85
153 160 155 157 153 149 141 136 134 128 126 125 124 123 122 117 114 111 111 111 111 105 101 100 98 94 99 104 94 92 90 85 83 85 78 88 93 95 91 94 92 91 88
155 156 156 156 149 145 140 141 135 132 127 127 126 126 123 120 114 111 104 103 101 99 99 95 90 90 91 99 96 93 89 85 85 83 83 90 92 95 94 91 90 91 90
158 150 157 153 146 145 143 139 135 127 126 125 124 126 125 117 110 106 101 96 94 88 85 84 83 86 86 86 88 85 80 78 81 80 84 90 97 99 97 98 97 99 94
146 153 153 148 146 147 142 137 134 129 126 128 126 123 124 121 117 111 105 99 92 90 87 94 85 81 78 83 84 78 69 71 74 72 78 91 99 100 93 100 106 100 98
152 157 149 146 146 146 140 137 134 131 128 127 127 126 123 121 119 116 109 104 103 101 105 101 103 96 84 81 81 72 64 61 60 64 76 88 100 98 90 91 100 98 94
157 146 145 143 144 141 140 137 133 131 131 130 124 121 122 120 116 113 107 104 102 105 101 99 98 99 99 96 80 73 64 60 53 51 68 83 95 99 96 91 94 97 96
154 142 144 140 141 139 138 135 129 125 125 125 124 120 115 112 110 111 100 98 100 100 98 95 95 94 87 83 79 70 69 52 45 37 67 87 96 100 100 94 94 93 98
156 148 147 146 143 138 136 126 120 119 117 111 112 113 110 109 99 96 98 94 97 101 98 94 89 86 83 72 69 67 62 52 46 32 32 87 89 94 96 99 99 100 98
160 151 153 151 149 141 133 125 120 122 123 123 123 114 111 108 104 100 96 98 100 99 96 91 85 78 71 69 59 56 60 52 46 40 27 65 84 93 99 101 102 103 103
160 152 149 152 150 141 141 131 129 126 120 117 117 116 113 109 101 95 96 89 90 87 84 82 74 66 65 66 65 58 53 55 42 40 33 37 72 90 96 101 109 109 111
163 156 151 149 143 144 137 134 128 128 132 128 121 122 120 114 107 103 98 94 92 91 86 83 82 78 73 69 66 62 53 49 38 39 35 36 42 75 87 109 117 121 119
163 153 150 146 144 139 133 134 132 133 137 134 127 123 127 121 117 118 106 96 94 98 95 88 86 82 75 72 67 62 55 47 41 41 34 36 43 48 45 50 130 125 122
166 158 150 146 143 137 135 136 136 137 137 140 134 131 129 129 129 124 115 109 102 103 97 95 94 90 80 75 67 62 56 53 48 42 34 30 37 43 39 36 135 124 127
162 160 152 143 139 135 136 132 137 139 141 143 140 143 140 138 136 132 125 114 112 110 107 102 96 92 86 77 68 57 51 41 43 42 37 34 30 32 37 39 51 114 117
152 162 146 148 141 133 129 127 127 135 141 141 142 142 142 136 135 131 129 124 126 118 114 110 108 94 86 78 71 57 53 45 42 38 40 38 32 21 27 38 43 50 81
156 149 144 151 142 134 122 119 113 113 123 126 129 132 136 135 133 124 127 129 127 120 114 117 97 107 106 93 83 69 54 45 39 38 37 37 35 32 26 34 43 45 43
152 151 146 152 137 129 125 115 103 102 95 114 121 130 135 138 135 127 126 129 129 124 120 120 110 99 109 109 92 74 56 45 42 38 31 41 39 39 38 40 39 41 43
141 146 147 147 147 138 139 134 144 136 125 94 106 130 134 138 138 134 134 132 130 133 129 125 115 115 104 119 95 75 56 47 45 32 33 33 38 41 45 46 41 45 40
141 145 145 152 157 162 157 157 124 142 97 96 113 115 135 139 141 140 144 145 134 130 128 141 137 128 97 353 113 103 100 33 40 33 32 30 35 42 42 43 49 51 51
150 148 147 153 152 152 148 124 101 91 100 92 98 101 111 144 150 148 147 148 138 142 148 140 132 126 136 51 77 124 115 179 109 353 24 25 35 40 46 44 46 54 60
160 146 142 140 140 136 145 142 153 160 153 144 145 119 108 126 123 140 145 146 146 136 132 137 139 120 123 134 90 47 50 132 149 113 8 13 36 37 38 52 50 48 57
145 143 139 135 133 141 135 159 149 154 120 124 137 135 125 110 142 147 152 151 153 153 145 149 139 138 101 131 122 132 77 63 73 127 155 332 40 24 46 50 58 52 48
128 138 139 136 143 153 142 167 149 159 145 148 137 129 129 107 127 156 158 153 152 151 143 150 145 139 125 115 119 120 138 151 160 129 119 117 124 15 40 49 52 53 53